Location: Damada
(14.7329°N, 3.1761°W)
Time: 18:23:38
(UTC+00:00)

Okean-O - Pass Details

Date: 18 February 2020
Orbit: 638 x 641 km, 98.2° (Epoch: 05 April)

Event Time Altitude Azimuth Distance (km) Brightness Sun altitude
Rises 18:35:48 0° 170° (S) 2,931 6.0 -5.1°
Reaches altitude 10° 18:38:00 10° 172° (S) 2,024 5.2 -5.6°
Maximum altitude 18:42:24 78° 257° (WSW) 656 2.8 -6.7°
Drops below altitude 10° 18:46:50 10° 345° (NNW) 2,028 5.3 -7.7°
Sets 18:49:02 0° 346° (NNW) 2,937 6.1 -8.3°
